This is the latest recevied weather packets stored in our database for station/object KF0EZB. If no packets are shown the sender has not sent any weather packets the latest 1 day(s).
| Time | Temp. | Humidity | Pressure | Rain* | Wind** | Luminosity | Snow |
|---|---|---|---|---|---|---|---|
| 1778057905 | 6.11° C | 98% | 1016.4 hPa | 0 mm | - | 0 W/m² | - |
| 1778057298 | 6.11° C | 98% | 1016.6 hPa | 3.05 mm | - | 0 W/m² | - |
| 1778056995 | 6.67° C | 98% | 1016.5 hPa | 1.78 mm | - | 0 W/m² | - |
| 1778056389 | 6.67° C | 97% | 1016.3 hPa | 1.27 mm | - | 0 W/m² | - |
| 1778055177 | 6.67° C | 97% | 1016.3 hPa | 1.27 mm | - | 0 W/m² | - |
| 1778054875 | 6.11° C | 97% | 1016 hPa | 1.27 mm | - | 0 W/m² | - |
| 1778054571 | 6.11° C | 97% | 1016.1 hPa | 0 mm | - | 0 W/m² | - |
| 1778054269 | 6.11° C | 97% | 1016.1 hPa | 0 mm | - | 0 W/m² | - |
| 1778053966 | 6.67° C | 97% | 1016.1 hPa | 0 mm | - | 0 W/m² | - |
| 1778053663 | 6.67° C | 97% | 1016.4 hPa | 0 mm | - | 0 W/m² | - |
| 1778053360 | 6.67° C | 97% | 1016.4 hPa | 1.78 mm | - | 0 W/m² | - |
| 1778053058 | 6.67° C | 97% | 1016.9 hPa | 1.78 mm | - | 0 W/m² | - |
| 1778052755 | 6.67° C | 97% | 1016.9 hPa | 0 mm | - | 0 W/m² | - |
| 1778051847 | 6.67° C | 96% | 1017.4 hPa | 1.27 mm | - | 0 W/m² | - |
| 1778050938 | 6.67° C | 96% | 1017.5 hPa | 0 mm | - | 0 W/m² | - |
| 1778050636 | 6.67° C | 96% | 1017.5 hPa | 0 mm | - | 0 W/m² | - |
| 1778050333 | 6.67° C | 96% | 1017.3 hPa | 0 mm | - | 0 W/m² | - |
| 1778050029 | 6.67° C | 95% | 1017.2 hPa | 0 mm | - | 0 W/m² | - |
| 1778049725 | 6.67° C | 95% | 1016.9 hPa | 0 mm | - | 0 W/m² | - |
| 1778049120 | 6.67° C | 95% | 1016.6 hPa | 0 mm | - | 0 W/m² | - |
| 1778048819 | 6.67° C | 95% | 1016.3 hPa | 0 mm | - | 0 W/m² | - |
| 1778048515 | 6.67° C | 95% | 1016.3 hPa | 0 mm | - | 0 W/m² | - |
| 1778048211 | 6.67° C | 94% | 1016 hPa | 0 mm | - | 0 W/m² | - |
| 1778047607 | 6.67° C | 94% | 1016 hPa | 0 mm | - | 0 W/m² | - |
| 1778047001 | 6.67° C | 93% | 1016.3 hPa | 1.27 mm | - | 0 W/m² | - |
* Rain latest hour (hover to see other rain measurements)
** Current wind speed in m/s (hover to see current wind gust speed)